Погода в Советском

Россия / Вологодская область     59°55′27″N   42°43′07″E
темп.,
°C
ветер,
м/с
пор.,
м/с
влажн.,
%
обл.,
%
осадки,
мм/ч
давл.,
гПа
погр.,
м
3 августа, вт
вт300:00+18ююв31088100 0.0 1005262
03:00+18ююв3139899 1.1 1003433
06:00+18ю51595100 0.4 1001633
09:00+19ююз51192100 0.4 1001821
12:00+22юз71056100 0.1 10041418
15:00+23зюз5849100 0.1 10051901
18:00+22юз375110 0.0 10051585
21:00+16юз237515 0.0 100655
4 августа, ср
ср400:00+16ююз247235 0.0 1008103
03:00+13юз268817 0.0 1009117
06:00+15зюз39790 0.0 1009298
09:00+19зюз47570 0.0 10101185
12:00+22зюз464442 0.0 10112175
15:00+22з46385 0.0 10112264
18:00+20зсз46435 0.0 10121139
21:00+13зсз24600 0.0 101467
5 августа, чт
чт500:00+10зсз26653 0.0 101596
03:00+10сз23715 0.0 101744
06:00+11ссз25700 0.0 1018149
09:00+17ссв234826 0.0 1019786
12:00+20ссз233523 0.0 10182374
15:00+21с233392 0.0 10182449
18:00+17с3753100 0.0 1019282
21:00+13св2363100 0.0 101957
6 августа, пт
пт600:00+13всв226187 0.0 101956
03:00+12всв2367100 0.0 102075
06:00+13всв256882 0.0 1020169
09:00+17всв354886 0.0 1019605
12:00+20всв333776 0.0 10192105
15:00+18в2549100 0.0 1018458
18:00+16ююв2465100 0.0 1018213
21:00+13ююв117872 0.1 101931
7 августа, сб
сб700:00+11всв228852 0.0 101928
03:00+9всв24977 0.0 101986
06:00+10всв2885100 0.0 1020230
09:00+16в4854100 0.0 1019781
12:00+19в4645100 0.0 10181641
15:00+21в4643100 0.0 10171931
18:00+19юв3756100 0.0 10171257
21:00+14вюв21084100 0.1 1017522